Find Maido-1

NORAD ID: 33496 Int'l Des: 2009-002 Owner: SOHLA/JAXA Country: J operational
LEOCIRCULARRETROGRADESSO

リアルタイム位置

3D地球を読み込み中...

Maido-1について

説明を読み込み中...

次回通過

Passes for default location (London). Set your location on the main map for personalized predictions.

高度履歴

Loading altitude history...

軌道要素

1 33496U 09002E 26131.45328527 .00000257 00000-0 46013-4 0 9997
2 33496 98.1424 35.9710 0006913 124.7914 235.3946 14.74988146928572
Epoch: May 11, 2026 • Age: 17 hours

現在のステータス

高度 668.3 km
速度 7.52 km/s
衛星直下点 -54.72°S, 88.21°W
打ち上げ日 Jan 23, 2009
運用期間 17.2 years
タイプ other

技術仕様

分類 Payload
質量 50.00 kg
乾燥質量 50.00 kg
総質量 50.00 kg
長さ 0.50 m
直径 0.50 m
スパン 0.50 m
形状 Box
製造者 SOHLA
バスタイプ SOHLA
フェーズステータス In Orbit
所有者/国 SOHLA/JAXA/J

Most Searched